Theta_e
300 299 298 297 296 296 296 299 299 299 298 299 300 301 301 301 300 300 300 300 300 300 301 301 301 301 301
297 296 296 294 294 294 294 295 296 297 297 298 298 298 298 298 298 298 298 298 298 298 298 298 299 299 299
297 295 293 293 293 293 293 293 294 294 295 296 296 296 295 296 296 296 296 296 296 296 296 296 296 296 296
295 295 293 292 291 292 295 293 293 291 291 291 291 291 292 293 294 294 294 295 294 293 293 293 293 293 293
295 295 294 293 292 290 291 290 290 288 288 288 288 288 288 288 289 289 290 291 291 291 290 290 290 291 291
293 293 291 289 288 288 288 288 290 287 286 287 286 286 286 286 285 284 284 285 285 287 287 288 290 291 291
289 288 288 287 286 287 287 287 287 286 285 286 285 285 286 285 285 285 285 287 288 288 289 289 290 291 291
287 287 286 286 286 286 286 285 285 285 284 285 286 286 286 286 285 285 285 286 287 288 289 290 290 290 291
284 284 284 284 284 285 286 285 286 285 283 284 286 285 286 286 285 284 285 285 285 286 288 289 289 290 290
282 281 280 281 280 282 283 284 284 286 284 284 285 284 287 286 285 285 285 285 284 284 286 287 288 288 288
281 281 281 282 282 282 282 282 284 284 284 283 283 284 284 285 285 285 285 285 285 285 284 285 286 287 287
281 282 282 283 282 282 281 281 281 281 282 281 281 282 283 283 284 285 285 284 284 284 284 284 284 284 285
282 283 282 282 281 281 280 280 280 281 280 280 280 281 281 281 282 283 282 284 283 283 284 284 284 284 284
282 282 281 281 282 282 281 282 281 282 281 280 280 279 280 281 281 281 281 282 284 284 283 283 283 283 283
281 281 281 281 282 281 281 281 281 281 282 281 280 279 280 279 280 281 282 282 283 283 282 282 282 283 283
280 280 280 280 280 280 280 280 280 281 281 281 280 280 281 281 281 281 282 283 283 283 282 282 282 283 284
279 279 279 279 278 279 279 279 279 280 280 280 280 280 281 283 283 282 281 282 283 283 283 283 283 283 284
Wind_Speed
5 7 7 6 5 5 5 2 2 4 7 5 4 2 3 5 5 7 8 11 12 13 11 9 10 10 8
2 3 4 6 7 6 6 3 5 8 7 7 6 5 6 7 9 10 13 12 13 14 14 16 12 12 13
1 2 2 6 5 6 6 5 5 5 8 11 13 14 13 11 10 9 11 13 15 17 16 16 12 12 13
2 2 2 4 4 6 4 5 5 5 7 7 7 7 6 9 9 10 12 11 10 10 10 12 13 14 15
2 3 3 3 3 4 6 7 5 6 7 5 5 6 6 8 10 12 13 15 16 16 16 16 16 17 15
3 3 2 3 3 4 5 6 4 5 9 10 10 9 8 8 10 14 16 17 16 16 16 15 15 14 14
3 2 3 2 2 4 4 5 7 8 9 7 5 6 6 8 11 10 10 9 10 12 13 14 14 14 15
1 2 2 3 4 4 5 7 7 5 3 5 5 7 8 8 12 9 9 9 11 13 13 13 15 15 16
5 7 7 7 6 5 5 5 5 2 3 4 6 11 9 6 4 4 3 7 8 8 11 14 15 16 18
4 5 4 4 4 4 4 4 4 4 1 5 7 8 6 4 3 7 9 10 12 11 12 12 14 15 15
4 3 2 1 1 1 2 3 4 5 5 3 4 7 5 8 10 9 11 8 10 11 12 14 15 17 17
4 4 3 4 4 5 6 7 7 10 11 10 6 6 8 11 10 6 11 13 13 12 11 12 15 18 21
5 5 5 5 8 7 7 8 9 12 12 12 12 11 11 11 15 16 15 10 18 19 12 12 14 14 16
6 6 6 5 5 5 6 7 10 10 8 9 12 12 15 17 19 22 18 13 10 15 17 19 18 18 19
7 7 8 8 8 7 8 10 11 11 10 9 11 14 17 20 20 22 22 20 20 19 15 18 20 19 19
8 9 9 9 10 10 10 11 12 12 13 11 10 12 14 19 23 27 17 17 15 16 16 18 23 19 19
10 10 10 11 11 11 11 12 13 14 14 12 12 12 9 9 15 18 21 18 16 19 20 21 26 27 22
Wind_Direction
280 304 307 314 316 341 345 315 307 37 33 41 29 348 248 237 253 257 260 262 260 258 265 261 258 261 268
263 305 296 318 316 325 326 307 299 275 296 296 297 283 271 273 270 264 264 252 249 256 256 258 254 266 268
231 276 297 322 335 334 334 343 339 311 286 290 289 283 280 277 272 265 262 261 256 259 254 252 260 261 263
232 277 289 299 342 334 329 350 349 345 341 326 325 313 289 256 254 253 252 244 241 249 251 253 258 258 258
255 267 273 295 321 317 315 327 321 348 340 332 328 310 294 290 269 267 258 254 258 261 262 263 261 256 254
248 263 275 302 310 327 329 333 319 355 341 313 309 304 292 284 269 270 266 265 265 264 262 260 256 252 249
274 289 281 300 303 316 324 309 302 311 327 308 318 309 300 296 293 283 276 271 265 261 257 253 251 248 247
2 295 289 295 296 301 306 303 300 301 336 289 321 311 306 296 293 286 270 273 273 263 257 255 254 254 254
268 269 270 271 269 277 287 301 311 304 318 302 323 318 305 292 292 290 325 305 298 289 264 254 257 260 259
284 298 295 281 272 251 267 266 285 297 281 331 328 347 321 299 292 288 299 298 293 283 262 256 246 249 253
284 272 260 248 247 262 249 237 254 263 296 319 292 311 288 301 304 294 297 294 295 294 286 260 251 247 253
262 252 249 254 265 269 263 256 257 260 262 269 264 267 283 290 284 294 297 295 291 288 282 273 267 262 252
254 257 257 263 277 285 281 269 284 286 275 259 253 262 257 252 273 286 303 294 284 278 269 267 273 267 265
259 265 273 273 275 271 274 276 286 286 266 254 249 251 259 259 266 275 276 269 274 275 277 276 274 267 262
255 263 264 264 264 265 269 279 276 284 283 269 268 263 263 264 269 266 271 271 269 273 269 269 270 266 262
255 259 264 266 268 269 270 268 276 282 282 279 272 277 281 276 253 261 270 272 274 271 268 267 273 270 265
256 258 262 265 268 270 268 269 273 276 277 277 273 264 271 272 278 253 252 269 276 273 268 263 267 275 272